"Pseudo-MPEC" for P221va2

Created 2024 Nov 22 10:31:10 UT using Find_Orb

Click here for an explanation of pseudo-MPECs

 
 Astrometry: 
     P221va2* C2024 11 02.37060802 39 55.013+24 18 46.94   ~B2B2 22.46wXNEOCPF52
     P221va2  C2024 11 02.38265302 39 54.543+24 19 01.72   ~B2B2 22.35wXNEOCPF52
     P221va2  C2024 11 02.39496402 39 54.039+24 19 17.28   ~B2B2 22.61wXNEOCPF52

Station data:
(F52) Pan-STARRS 2, Haleakala  (N20.707382 W156.255910)  US/Hawaii.
   Observers J. Bulger, T. Dukes, T. Lowe, A. Schultz, M. Willman. Measurers
   K. Chambers, S. Chastel, T. de Boer, L. Denneau, J. Fairlamb, H.
   Flewelling, M. Huber, C.-C. Lin, E. Magnier, Y. Ramanjooloo, R. Wainscoat,
   R. Weryk. 1.8-m Ritchey-Chrétien + CCD.

Orbital elements:  P221va2
   Perihelion 2025 Jan 1.43044 +/- 45.9 TT = 10:19:50 (JD 2460676.93044)
Epoch 2024 Nov  2.0 TT = JDT 2460616.5   Earth MOID: 0.1819   Ma: 0.0065
M 342.72761141 +/- 16               (J2000 ecliptic)             AutoNEOCP
n   0.28582264 +/- 0.249            Peri.   76.68295 +/- 80
a   2.28246939 +/- 1.32             Node    18.66829 +/- 51
e   0.5014324 +/- 0.245             Incl.    5.37941 +/- 4.9
P   3.44832                H 23.62  G  0.15   U 11.8  SR
q 1.13796522 +/- 0.352    Q 3.42697356 +/- 67.3
From 3 observations 2024 Nov. 2 (35.1 min); mean residual 0".10
Residuals in arcseconds: 
241102 F52  .05-  .09+    241102 F52  .09+  .17-    241102 F52  .05-  .08+    

Ephemerides (geocentric):
Date (UTC) HH   RA             Dec           delta  r     elong  mag " sig PA
---- --------  ------------   ------------  ------ ------ -----  --- --------
2024 11 22 11  02 28 54.339   +32 16 45.97  .25132 1.2239 157.8 22.0  53d 107
2024 11 22 12  02 28 53.310   +32 17 52.70  .25121 1.2238 157.7 22.0  53d 107
2024 11 22 13  02 28 52.285   +32 18 59.44  .25109 1.2236 157.7 22.0  53d 107
2024 11 22 14  02 28 51.265   +32 20 06.22  .25098 1.2234 157.7 22.0  53d 107
2024 11 22 15  02 28 50.248   +32 21 13.01  .25087 1.2233 157.6 22.0  53d 106
2024 11 22 16  02 28 49.235   +32 22 19.82  .25075 1.2231 157.6 22.0  53d 106
2024 11 22 17  02 28 48.226   +32 23 26.66  .25064 1.2229 157.5 22.0  53d 106
2024 11 22 18  02 28 47.221   +32 24 33.52  .25053 1.2228 157.5 22.0  53d 106
2024 11 22 19  02 28 46.221   +32 25 40.41  .25042 1.2226 157.5 22.0  53d 105
2024 11 22 20  02 28 45.224   +32 26 47.31  .25030 1.2224 157.4 22.0  53d 105
2024 11 22 21  02 28 44.231   +32 27 54.24  .25019 1.2223 157.4 22.0  54d 105
2024 11 22 22  02 28 43.243   +32 29 01.19  .25008 1.2221 157.3 22.0  54d 105
2024 11 22 23  02 28 42.258   +32 30 08.16  .24997 1.2219 157.3 22.0  54d 105
2024 11 23 00  02 28 41.278   +32 31 15.15  .24986 1.2218 157.3 22.0  54d 105
2024 11 23 01  02 28 40.302   +32 32 22.17  .24975 1.2216 157.2 22.0  54d 105
2024 11 23 02  02 28 39.330   +32 33 29.21  .24964 1.2214 157.2 22.0  54d 105
2024 11 23 03  02 28 38.362   +32 34 36.27  .24953 1.2213 157.1 22.0  54d 105
2024 11 23 04  02 28 37.399   +32 35 43.35  .24941 1.2211 157.1 22.0  54d 105
2024 11 23 05  02 28 36.439   +32 36 50.45  .24930 1.2209 157.1 22.0  54d 105
2024 11 23 06  02 28 35.484   +32 37 57.58  .24919 1.2208 157.0 22.0  54d 104
2024 11 23 07  02 28 34.534   +32 39 04.73  .24908 1.2206 157.0 22.0  54d 104
2024 11 23 08  02 28 33.587   +32 40 11.89  .24897 1.2204 156.9 22.0  54d 104
2024 11 23 09  02 28 32.645   +32 41 19.08  .24886 1.2203 156.9 22.0  54d 104
2024 11 23 10  02 28 31.707   +32 42 26.30  .24876 1.2201 156.9 22.0  55d 104
2024 11 23 11  02 28 30.774   +32 43 33.53  .24865 1.2199 156.8 22.0  55d 104
2024 11 23 12  02 28 29.844   +32 44 40.79  .24854 1.2198 156.8 22.0  55d 104
2024 11 23 13  02 28 28.920   +32 45 48.06  .24843 1.2196 156.8 22.0  55d 105
2024 11 23 14  02 28 27.999   +32 46 55.36  .24832 1.2194 156.7 22.0  55d 105
2024 11 23 15  02 28 27.083   +32 48 02.68  .24821 1.2193 156.7 22.0  55d 105
2024 11 23 16  02 28 26.172   +32 49 10.02  .24810 1.2191 156.6 22.0  55d 105
2024 11 23 17  02 28 25.265   +32 50 17.38  .24799 1.2189 156.6 22.0  55d 105
2024 11 23 18  02 28 24.362   +32 51 24.76  .24789 1.2188 156.6 22.0  55d 105
2024 11 23 19  02 28 23.464   +32 52 32.17  .24778 1.2186 156.5 22.0  55d 105
2024 11 23 20  02 28 22.571   +32 53 39.59  .24767 1.2185 156.5 22.0  55d 105
2024 11 23 21  02 28 21.682   +32 54 47.04  .24756 1.2183 156.4 22.0  55d 105
2024 11 23 22  02 28 20.798   +32 55 54.50  .24746 1.2181 156.4 22.0  55d 105
2024 11 23 23  02 28 19.918   +32 57 01.99  .24735 1.2180 156.4 22.0  55d 105
2024 11 24 00  02 28 19.043   +32 58 09.50  .24724 1.2178 156.3 22.0  55d 105
2024 11 24 01  02 28 18.172   +32 59 17.03  .24714 1.2176 156.3 22.0  55d 105
2024 11 24 02  02 28 17.306   +33 00 24.58  .24703 1.2175 156.2 22.0  55d 105
2024 11 24 03  02 28 16.445   +33 01 32.15  .24692 1.2173 156.2 22.0  55d 105
2024 11 24 04  02 28 15.588   +33 02 39.74  .24682 1.2171 156.2 22.0  55d 105
2024 11 24 05  02 28 14.737   +33 03 47.35  .24671 1.2170 156.1 22.0  55d 105
2024 11 24 06  02 28 13.890   +33 04 54.98  .24661 1.2168 156.1 22.0  56d 105
2024 11 24 07  02 28 13.047   +33 06 02.64  .24650 1.2167 156.0 22.0  56d 105
2024 11 24 08  02 28 12.210   +33 07 10.31  .24639 1.2165 156.0 22.0  56d 105
2024 11 24 09  02 28 11.377   +33 08 18.00  .24629 1.2163 156.0 22.0  56d 105
2024 11 24 10  02 28 10.549   +33 09 25.72  .24618 1.2162 155.9 22.0  56d 105